RH
33 39 49 50 46 48 45 48 50 58 57 51 53 44 29 27 28 28 30 27 26 27 30 30 24 20 18 17 16 20 23 30 33 29 28 27 21 24 27 31 38 39 34
30 34 45 52 51 45 46 51 57 66 59 54 41 31 25 27 31 32 30 32 33 27 24 21 20 20 22 24 25 28 34 39 39 35 29 23 22 26 30 32 38 35 33
30 32 37 54 54 48 47 55 56 61 51 39 29 25 23 29 28 28 33 27 25 25 24 22 23 24 28 30 33 39 44 44 37 31 26 27 26 29 42 47 44 35 22
23 26 38 54 53 49 50 54 54 47 38 29 24 22 27 29 33 34 33 29 27 25 23 24 26 29 33 36 42 48 46 38 29 29 28 27 32 40 47 48 30 23 21
24 25 42 48 43 44 42 42 38 34 31 27 24 26 31 33 35 38 32 28 25 24 25 26 27 30 34 47 52 41 33 31 30 31 30 34 47 50 48 34 25 26 25
26 26 27 30 33 33 32 30 28 27 27 25 23 29 34 37 39 34 30 24 23 24 25 28 31 41 48 49 51 39 32 32 34 32 32 45 56 49 37 30 28 30 33
29 30 29 28 29 31 31 29 26 28 27 28 29 32 37 42 37 31 27 24 25 27 29 29 36 43 51 53 42 35 35 36 35 30 46 56 55 41 31 29 30 36 35
30 34 36 34 32 32 30 29 28 28 31 32 35 37 40 35 32 29 27 27 27 31 34 41 47 48 42 39 38 36 37 38 36 44 63 59 42 32 30 32 35 37 36
35 35 42 45 44 43 34 31 32 33 34 35 39 35 37 33 33 34 33 32 32 35 55 64 52 43 40 39 38 38 42 41 45 64 66 46 34 31 31 31 38 37 36
40 38 40 43 51 52 50 44 40 38 40 40 40 41 42 40 35 36 36 38 67 72 48 41 39 38 41 42 40 40 45 50 65 69 59 40 34 33 37 38 36 36 38
46 46 41 40 43 48 52 55 52 48 44 44 43 45 46 43 43 51 64 72 52 42 38 38 42 52 52 47 45 54 54 75 78 64 47 40 39 39 44 39 40 43 44
59 51 50 45 41 44 50 57 59 60 58 54 57 58 51 45 42 49 51 46 41 44 44 53 63 59 49 47 59 65 86 88 74 58 47 45 47 45 44 45 45 47 46
64 56 53 56 54 50 49 53 58 57 52 54 62 60 52 48 46 44 45 46 42 45 51 64 65 54 54 61 84 90 88 79 66 55 50 47 52 56 51 49 52 50 47
66 65 61 58 57 57 56 57 62 61 54 50 48 52 48 48 51 53 53 54 52 53 66 70 59 55 67 82 92 92 86 77 64 59 55 56 60 55 51 54 52 52 48
71 75 71 61 58 56 56 58 59 60 59 57 54 55 58 57 60 63 62 62 68 72 68 63 62 83 91 96 95 88 80 71 68 63 65 63 58 55 56 54 50 47 51
81 87 78 73 65 59 60 60 60 60 62 61 61 62 62 70 80 81 74 71 70 66 67 65 87 100 100 99 90 83 79 70 74 69 58 61 62 58 55 54 50 52 63
93 87 85 74 69 70 64 61 56 63 63 64 64 67 72 81 82 77 73 74 70 74 78 87 99 100 98 94 82 75 65 62 60 56 62 73 62 55 58 52 49 47 54
82 84 83 89 83 75 65 64 64 68 67 68 66 70 70 79 92 89 83 77 74 82 88 100 100 100 98 82 74 65 61 58 56 62 71 68 59 58 54 50 48 49 52
88 80 71 78 81 86 82 73 69 70 71 69 73 74 93 100 94 86 81 82 86 96 100 100 100 100 90 81 72 64 58 52 66 76 71 64 62 52 49 50 55 54 56
100 91 92 89 89 83 80 79 78 77 80 90 94 100 100 95 88 87 83 88 93 100 100 100 100 96 94 82 69 64 62 70 83 73 67 65 57 52 46 57 66 81 96
100 100 90 88 91 85 82 81 85 91 96 94 91 88 83 83 88 81 91 94 100 100 100 100 100 98 90 76 68 72 71 80 76 67 64 60 53 44 58 82 86 100 100
100 100 100 100 98 95 94 94 96 91 91 92 96 100 100 100 100 100 99 100 100 100 100 100 95 87 81 77 80 72 79 81 80 68 63 54 44 41 53 78 93 94 99
100 100 100 100 100 100 100 100 100 100 100 100 100 100 100 100 100 100 100 100 100 100 100 100 97 84 81 84 84 78 74 86 77 67 58 46 41 62 77 84 76 64 59
100 100 100 100 100 100 100 100 100 100 100 100 100 100 100 100 100 100 100 100 100 100 100 97 88 83 83 91 82 84 82 74 69 60 44 48 64 77 65 49 33 38 40
83 100 100 100 100 100 100 100 100 100 100 100 100 99 100 97 92 85 82 93 96 85 80 77 82 88 87 86 82 90 83 72 61 42 40 48 56 54 36 33 33 37 38
92 84 92 100 100 100 100 100 100 100 100 100 100 100 100 100 97 97 100 89 86 82 79 80 86 91 90 89 89 88 76 64 45 40 29 36 33 29 24 27 34 37 40
Wind_Speed
36 36 39 39 40 39 36 33 33 32 31 27 26 24 24 23 22 22 20 18 17 18 20 20 22 24 26 28 29 30 33 37 41 45 49 52 55 52 50 48 48 49 53
35 33 35 37 38 38 35 34 30 30 29 26 25 26 23 23 22 22 20 18 18 18 19 21 24 27 28 29 31 33 37 41 46 48 53 55 53 50 49 51 52 53 60
34 34 36 36 35 35 33 31 29 28 28 27 26 26 25 24 23 20 19 17 17 19 22 24 27 29 30 32 34 38 41 45 48 51 56 54 53 51 52 52 56 60 61
34 37 35 35 35 33 31 30 30 30 29 28 27 26 26 23 21 20 19 19 20 23 24 27 29 31 33 35 38 43 46 49 51 55 58 54 54 54 53 56 61 58 59
34 35 35 34 33 32 31 31 31 30 30 29 28 26 25 23 22 23 22 22 23 25 27 30 33 35 37 39 42 46 49 52 57 60 60 59 56 56 55 60 60 59 60
37 33 32 33 32 31 30 30 30 30 29 29 28 27 27 25 24 24 24 25 26 28 32 33 35 38 40 43 47 51 53 57 61 62 60 58 57 56 59 62 62 64 61
40 35 32 31 31 30 30 31 32 30 29 29 30 29 26 26 27 27 28 29 30 33 37 38 40 42 45 48 51 55 58 61 63 63 62 59 58 61 63 63 66 64 65
42 40 37 35 34 33 33 33 33 32 31 32 29 27 26 27 28 30 31 33 35 38 40 41 43 46 49 53 56 58 61 64 63 64 61 59 63 65 68 68 66 66 67
45 42 39 38 37 36 35 35 34 34 33 33 30 28 29 29 31 32 35 37 39 41 43 45 48 51 54 57 60 63 63 64 64 63 59 66 69 70 71 73 67 70 70
48 46 44 41 39 37 37 36 36 35 34 33 32 33 32 33 34 37 39 40 43 43 46 49 53 56 59 62 65 66 65 65 64 61 66 71 74 75 72 70 71 71 74
52 49 47 45 43 41 39 39 37 37 36 36 36 37 37 37 38 40 42 43 46 47 51 54 57 60 64 67 69 67 69 65 65 67 73 76 76 75 72 73 76 76 77
55 53 51 48 46 44 42 41 41 41 41 40 41 42 42 43 44 45 46 47 50 52 55 58 62 65 68 70 69 69 66 67 69 72 77 76 76 74 76 78 80 78 79
59 57 55 53 51 49 48 46 46 46 45 44 45 46 46 47 48 48 50 53 54 57 59 62 66 69 70 70 66 67 68 72 73 76 77 77 77 76 79 80 80 83 80
62 60 59 57 56 55 53 51 50 50 49 48 48 49 50 50 50 52 54 57 59 61 64 67 69 71 71 68 68 70 72 75 76 77 79 79 79 81 82 84 86 83 77
67 66 62 60 59 58 56 55 55 54 53 54 53 53 55 55 56 57 59 60 62 64 67 70 71 69 69 68 71 73 74 74 76 79 79 82 84 84 86 89 91 84 70
69 69 65 64 64 62 61 60 59 59 59 59 59 58 58 59 60 62 63 65 67 70 71 72 69 69 71 73 74 75 74 77 78 81 84 87 88 91 94 93 83 74 65
71 69 69 69 67 65 66 66 63 62 61 61 60 61 62 63 64 65 67 69 71 72 72 71 69 71 74 76 77 78 79 80 83 86 88 90 94 98 96 90 85 72 64
73 72 70 69 69 70 68 65 65 65 65 65 65 67 67 67 67 69 71 72 72 72 72 69 71 74 77 80 80 81 82 84 87 90 93 97 100 101 100 94 86 71 64
76 75 74 74 75 74 71 70 70 70 70 70 70 70 70 70 72 72 72 72 72 70 70 72 75 77 80 82 83 86 88 90 91 94 99 102 103 104 99 91 79 74 71
78 78 77 77 77 76 74 73 72 72 72 72 72 73 73 73 72 71 73 73 70 70 73 76 78 81 84 86 89 91 92 93 95 99 103 104 105 105 97 84 80 77 78
79 80 80 79 78 77 75 75 74 75 75 74 74 75 75 74 74 75 72 70 69 73 77 80 81 84 87 92 94 95 95 97 101 105 107 108 108 100 85 84 84 86 86
81 81 80 80 80 78 77 76 76 77 76 77 75 75 73 73 72 71 71 71 73 78 80 83 86 88 91 95 97 99 97 100 106 110 111 111 101 96 89 90 93 94 96
84 83 81 81 82 80 77 76 78 77 77 76 74 73 75 73 71 71 73 75 79 81 84 87 92 95 96 98 100 104 103 103 107 110 113 106 99 95 97 100 104 102 100
89 86 84 82 80 80 80 80 79 78 78 77 77 75 75 73 73 74 77 80 82 84 87 92 96 99 101 101 103 107 108 110 112 111 103 97 97 101 105 108 100 92 89
96 93 89 86 83 81 81 79 79 79 79 79 80 80 80 81 83 85 86 86 89 91 94 96 97 98 102 104 106 108 112 115 115 111 95 95 100 106 104 97 97 90 86
101 98 95 92 89 86 84 82 81 79 79 79 80 81 83 85 86 87 90 93 96 97 98 99 99 101 103 105 107 111 115 117 111 101 100 101 102 101 97 91 90 87 84
Wind_Direction
233 235 237 235 232 234 239 242 245 245 247 252 251 251 255 256 262 266 265 269 279 288 299 305 308 309 309 310 311 314 318 321 323 324 323 320 321 320 318 320 320 318 318
230 231 233 230 230 232 236 239 242 240 244 245 246 248 252 257 257 261 266 275 288 295 298 304 308 308 309 310 312 317 320 321 320 320 321 322 322 322 321 322 319 319 318
233 234 235 226 224 227 232 233 235 237 237 241 244 247 252 252 258 265 273 281 287 293 300 306 306 305 308 311 314 317 318 317 316 319 322 322 323 321 321 320 319 318 318
235 233 234 224 222 226 227 231 231 233 234 235 239 247 249 252 258 263 272 283 290 297 300 301 302 303 307 310 313 315 313 313 315 321 324 324 325 325 321 319 319 318 319
229 230 228 224 222 222 225 229 231 231 232 233 241 248 248 252 259 265 272 283 291 295 298 302 303 303 305 309 310 311 312 313 316 322 323 324 325 323 320 320 320 321 320
228 227 226 222 220 221 224 227 231 235 236 239 246 246 249 255 262 270 278 282 287 293 298 299 301 303 304 303 307 309 311 315 316 320 321 323 323 321 320 321 320 322 319
228 228 228 225 224 226 229 231 235 240 244 245 245 248 253 260 268 274 278 283 288 295 297 297 298 301 302 302 306 309 311 314 317 319 322 323 322 321 322 322 322 319 318
230 227 230 230 230 231 233 236 239 242 243 246 247 250 257 266 274 279 282 286 290 293 295 297 298 299 302 306 308 310 312 314 316 319 321 320 319 321 322 322 320 320 320
229 230 230 234 235 238 239 240 242 244 245 246 248 254 262 268 272 277 281 285 286 290 294 295 296 300 304 307 309 310 311 312 313 318 316 318 320 321 321 322 321 321 320
231 232 232 235 238 238 241 243 244 244 245 249 253 259 264 272 278 280 282 284 288 291 293 296 298 302 304 306 308 311 311 312 313 314 315 318 320 321 320 319 320 321 322
234 234 236 235 237 240 242 245 248 249 251 255 259 262 265 268 272 277 282 286 289 291 295 297 300 304 305 307 310 310 312 311 310 313 316 319 319 319 318 319 321 322 322
233 237 238 241 242 245 246 248 251 254 256 258 263 266 268 271 274 278 282 287 289 293 295 299 303 303 307 309 310 309 308 308 312 313 317 316 316 317 317 319 320 321 321
233 235 239 241 244 247 249 251 253 255 258 260 264 267 269 273 276 281 283 286 287 290 296 299 302 305 307 308 307 306 307 309 311 315 314 315 315 315 316 317 319 319 318
233 237 239 241 243 246 249 252 254 258 260 263 265 270 273 275 280 283 284 287 290 294 297 300 302 304 306 304 302 303 306 309 313 312 313 312 312 314 316 316 318 317 314
235 237 238 241 243 247 250 254 257 260 263 266 268 271 275 278 280 282 285 288 290 294 298 300 303 303 302 300 301 303 306 310 310 310 310 310 312 314 315 316 317 316 309
237 239 241 243 245 246 249 253 256 259 262 265 269 272 275 277 279 282 285 287 292 295 298 301 301 298 297 298 302 306 308 309 307 307 309 309 313 313 315 317 315 310 303
236 239 240 243 245 246 250 253 256 258 261 265 269 272 275 277 280 283 285 288 293 296 296 298 296 294 296 300 302 304 306 306 307 308 309 310 312 313 314 315 313 308 301
236 238 242 245 246 248 249 252 256 260 263 266 270 272 274 276 279 282 286 290 292 293 294 292 292 294 298 298 302 305 306 306 308 309 309 311 313 314 313 312 310 303 298
238 241 244 247 250 253 255 257 259 261 264 266 268 271 274 276 279 285 287 289 291 291 289 291 294 295 297 299 303 305 305 307 308 309 310 313 313 313 312 310 305 304 301
240 241 242 245 248 252 255 257 260 263 265 267 269 271 274 278 282 284 286 288 289 288 288 291 293 295 298 300 303 304 307 308 309 309 311 311 312 313 311 305 304 304 303
240 242 244 244 247 250 253 257 259 261 264 267 270 273 275 279 281 282 283 285 286 285 289 291 293 296 298 301 303 304 306 307 309 309 310 311 311 309 306 305 304 302 301
240 242 245 247 248 251 253 257 259 261 264 267 271 273 276 277 279 280 282 283 283 286 288 289 292 294 298 300 301 303 306 308 308 309 310 311 310 307 306 304 303 300 299
240 242 244 246 249 251 252 254 257 261 264 266 268 270 273 276 278 280 281 281 283 286 289 292 294 298 298 300 303 304 306 307 308 310 310 309 307 306 305 303 302 300 298
240 242 244 245 248 251 253 255 257 258 261 264 266 268 270 272 273 274 276 279 282 285 287 291 294 296 299 301 304 305 306 307 307 308 307 306 304 305 303 303 302 300 297
241 243 245 246 248 250 252 253 255 259 262 266 268 270 272 273 274 275 277 279 280 283 286 289 292 295 298 301 303 304 305 307 308 307 303 303 304 304 304 303 301 299 297
241 243 245 247 248 249 252 255 256 258 260 263 267 269 271 273 276 278 279 281 283 286 289 291 294 296 298 301 302 304 305 307 306 303 303 304 303 304 303 302 300 299 298